Temperature
11 12 11 11 11 10 10 9 9 9 8 7 6 6 5 4 4 3 2 2 1 1 0 -0 -1 -1 -2 -3 -4 -4 -5 -5 -5 -5 -5 -6 -6 -6 -6 -6 -7 -7 -7
11 11 11 10 10 9 9 9 8 8 7 6 5 5 4 3 3 2 1 1 1 0 -1 -1 -2 -2 -3 -4 -5 -6 -6 -6 -6 -6 -6 -6 -6 -7 -7 -7 -7 -7 -7
11 11 10 10 9 9 9 8 8 7 6 5 4 4 3 2 2 1 1 0 -0 -1 -2 -2 -3 -4 -5 -5 -6 -6 -7 -7 -7 -7 -7 -7 -7 -7 -7 -7 -7 -7 -8
10 10 10 9 9 8 8 8 7 6 5 4 3 3 2 1 1 0 0 -0 -1 -2 -2 -3 -4 -5 -6 -7 -7 -7 -7 -7 -7 -7 -7 -7 -7 -7 -7 -7 -7 -8 -8
10 9 9 9 8 8 7 6 5 4 4 3 2 2 1 1 0 -0 -1 -2 -2 -3 -3 -4 -6 -6 -6 -8 -8 -8 -8 -8 -8 -7 -7 -7 -8 -7 -7 -8 -8 -9 -9
9 9 9 8 7 7 6 5 4 3 3 2 1 1 0 -0 -0 -1 -1 -2 -3 -4 -4 -5 -6 -7 -8 -8 -8 -8 -8 -8 -8 -8 -8 -8 -8 -8 -8 -9 -9 -9 -9
9 8 8 7 6 5 5 4 3 2 2 1 0 -0 -0 -1 -1 -1 -2 -2 -4 -4 -5 -6 -7 -8 -8 -8 -9 -8 -8 -8 -8 -8 -9 -9 -9 -9 -9 -9 -9 -9 -9
8 7 7 6 5 4 3 3 2 1 0 -0 -1 -1 -1 -1 -1 -2 -2 -3 -4 -5 -7 -7 -8 -8 -8 -9 -9 -8 -8 -9 -9 -9 -9 -10 -10 -9 -9 -9 -10 -10 -10
7 6 5 5 4 3 2 1 1 -0 -1 -1 -1 -1 -1 -2 -2 -3 -3 -4 -6 -7 -8 -8 -8 -9 -9 -9 -9 -9 -9 -9 -9 -10 -10 -10 -9 -9 -10 -10 -10 -10 -10
6 5 4 3 2 2 1 0 -0 -1 -1 -1 -1 -2 -2 -2 -3 -3 -4 -6 -7 -8 -8 -8 -9 -9 -9 -9 -9 -9 -9 -10 -10 -10 -9 -9 -9 -9 -9 -10 -10 -10 -10
4 3 2 2 1 0 -0 -1 -1 -1 -1 -2 -2 -3 -3 -3 -4 -4 -5 -8 -8 -9 -9 -9 -9 -9 -9 -9 -10 -10 -10 -10 -10 -10 -10 -9 -9 -9 -9 -9 -9 -9 -10
3 2 1 1 -0 -1 -1 -1 -2 -2 -2 -2 -2 -3 -4 -4 -5 -6 -7 -8 -9 -9 -9 -9 -10 -10 -10 -10 -10 -10 -10 -10 -10 -10 -10 -10 -9 -8 -8 -7 -8 -8 -8
2 1 0 -1 -1 -1 -2 -2 -2 -2 -3 -3 -3 -3 -4 -5 -6 -7 -8 -9 -10 -10 -10 -10 -10 -10 -10 -9 -9 -10 -10 -10 -10 -10 -10 -9 -8 -8 -8 -7 -8 -8 -8
0 -0 -1 -1 -2 -2 -2 -3 -3 -3 -3 -4 -5 -5 -6 -7 -8 -9 -10 -10 -10 -10 -10 -10 -10 -10 -10 -10 -10 -10 -10 -10 -11 -10 -10 -9 -8 -8 -8 -8 -8 -8 -8
-1 -1 -1 -2 -2 -3 -3 -3 -3 -4 -4 -5 -6 -7 -8 -9 -9 -10 -10 -10 -10 -10 -11 -10 -10 -10 -10 -10 -10 -10 -10 -10 -9 -9 -9 -9 -8 -8 -8 -8 -8 -8 -9
-1 -2 -2 -2 -3 -3 -3 -4 -4 -4 -5 -6 -7 -7 -8 -9 -10 -10 -10 -10 -10 -10 -11 -11 -11 -11 -11 -11 -10 -10 -9 -9 -9 -9 -8 -8 -9 -9 -8 -8 -8 -8 -9
-2 -2 -2 -3 -3 -3 -4 -4 -4 -5 -5 -6 -7 -8 -8 -9 -10 -10 -11 -10 -10 -10 -11 -11 -11 -11 -11 -10 -10 -10 -9 -9 -8 -8 -8 -8 -9 -9 -8 -8 -8 -8 -8
-2 -3 -3 -3 -4 -4 -4 -5 -5 -6 -6 -7 -8 -8 -9 -9 -9 -10 -10 -10 -10 -10 -11 -11 -11 -11 -10 -10 -10 -10 -9 -8 -8 -8 -8 -8 -8 -8 -8 -8 -8 -8 -8
-3 -3 -4 -4 -4 -5 -5 -6 -6 -7 -8 -8 -8 -9 -9 -9 -9 -10 -10 -10 -10 -10 -11 -11 -10 -10 -10 -10 -10 -9 -9 -8 -8 -8 -8 -8 -8 -8 -8 -8 -8 -8 -8
-4 -4 -4 -5 -5 -5 -6 -7 -8 -8 -9 -9 -10 -10 -10 -10 -10 -10 -10 -10 -10 -10 -11 -10 -10 -10 -10 -10 -9 -9 -8 -8 -8 -8 -8 -8 -7 -7 -8 -8 -8 -8 -8
-4 -4 -5 -5 -6 -6 -7 -8 -8 -9 -9 -10 -10 -10 -11 -11 -11 -11 -10 -11 -11 -11 -11 -10 -10 -10 -10 -9 -9 -9 -8 -8 -8 -8 -7 -7 -7 -7 -7 -7 -7 -7 -8
-4 -5 -5 -6 -6 -7 -8 -9 -9 -9 -10 -10 -10 -10 -11 -11 -11 -11 -11 -11 -11 -11 -11 -10 -10 -10 -9 -9 -9 -8 -8 -8 -8 -8 -7 -7 -7 -7 -7 -7 -7 -7 -8
-5 -5 -6 -7 -7 -8 -8 -9 -10 -10 -10 -10 -11 -11 -11 -11 -11 -11 -11 -11 -10 -10 -10 -10 -10 -9 -9 -8 -8 -8 -8 -8 -8 -7 -7 -7 -7 -7 -7 -7 -7 -7 -8
-6 -6 -7 -7 -8 -8 -9 -9 -10 -10 -10 -11 -11 -11 -11 -11 -11 -11 -11 -10 -10 -10 -10 -10 -9 -9 -8 -8 -8 -8 -8 -8 -7 -7 -7 -7 -7 -7 -7 -7 -7 -7 -7
-6 -7 -7 -8 -8 -9 -9 -10 -10 -11 -11 -11 -11 -11 -11 -11 -11 -11 -11 -10 -10 -10 -9 -9 -9 -8 -8 -8 -8 -8 -7 -7 -7 -7 -7 -7 -7 -7 -7 -7 -7 -7 -7
-7 -7 -8 -9 -9 -9 -10 -10 -10 -11 -11 -11 -11 -11 -11 -11 -11 -11 -11 -10 -10 -9 -9 -8 -8 -8 -8 -7 -7 -7 -7 -7 -7 -7 -7 -7 -7 -7 -7 -7 -7 -7 -7
Wind_Speed
17 16 16 15 15 16 14 14 14 13 12 11 9 7 6 4 3 2 3 3 5 5 6 7 9 10 9 9 9 10 11 12 16 17 15 16 19 19 18 19 21 22 22
17 17 16 16 16 15 15 14 13 12 11 10 8 6 4 3 2 2 3 4 5 7 7 8 9 9 10 10 9 10 11 12 15 20 18 17 20 19 19 19 18 19 20
17 17 17 17 17 16 15 14 13 12 10 9 7 5 3 2 2 3 4 6 7 8 8 9 10 10 11 10 11 11 12 12 14 17 19 17 16 16 20 20 20 17 18
16 17 18 17 16 16 15 14 12 11 9 7 5 4 2 1 2 4 5 7 8 9 9 10 10 10 11 12 12 13 13 15 16 17 17 17 16 19 18 17 17 16 16
17 17 17 17 16 16 15 13 11 9 7 6 4 3 0 2 3 5 7 8 9 10 10 11 11 12 14 14 13 15 16 16 15 16 16 17 18 18 17 16 17 18 18
17 17 17 17 16 15 14 13 11 8 7 5 3 1 1 2 5 8 9 10 10 10 11 11 11 12 14 18 20 21 21 19 18 16 17 19 21 20 17 17 17 19 19
17 17 17 16 15 14 13 11 9 7 5 3 1 1 3 3 6 9 10 11 10 10 11 11 11 11 15 14 18 21 21 22 21 20 20 20 21 19 19 20 19 20 20
17 17 16 15 15 13 11 10 8 5 4 2 1 2 3 4 7 10 13 11 10 10 11 12 13 14 13 17 18 18 17 17 19 17 17 19 19 20 20 20 20 19 20
16 16 14 14 14 12 10 8 6 4 2 1 1 3 4 5 7 11 13 10 9 11 12 13 14 14 18 22 19 18 18 17 17 20 23 24 27 27 22 15 15 15 17
15 14 13 12 12 10 9 7 5 3 1 1 2 3 5 6 8 12 13 9 10 11 12 12 15 16 20 23 18 18 18 17 17 18 19 19 19 18 19 15 13 14 15
14 14 12 11 10 9 8 6 4 2 0 2 3 4 4 6 9 11 13 10 10 12 12 11 11 18 22 23 21 16 18 19 18 16 15 14 14 12 12 12 12 12 14
14 13 12 11 9 7 6 5 3 1 2 3 5 6 5 6 7 11 14 14 15 13 12 11 13 21 23 22 18 17 21 19 12 12 12 13 13 13 13 14 16 15 15
14 12 11 9 7 6 5 3 2 2 3 4 5 6 7 7 8 12 14 16 17 12 12 17 21 21 20 16 15 19 17 11 10 11 12 13 13 14 14 14 15 15 17
13 11 9 8 6 5 3 2 2 3 4 5 6 7 8 8 8 9 11 12 14 13 13 16 19 17 14 14 14 12 10 10 11 12 13 13 13 13 13 13 13 13 13
11 9 8 6 5 4 3 2 3 2 4 6 6 7 8 9 10 16 14 11 12 13 15 12 10 10 10 10 10 11 11 11 11 11 12 13 13 13 13 13 12 13 13
9 7 5 4 4 3 2 1 0 3 5 7 8 9 9 12 17 17 18 18 19 18 14 10 9 9 10 11 12 12 12 12 12 12 12 12 13 13 14 13 12 12 13
8 7 5 4 3 2 2 3 4 3 4 6 8 10 12 15 16 16 17 18 17 14 9 8 9 9 10 11 11 12 13 13 12 12 12 12 12 13 13 13 13 13 13
8 6 5 3 2 1 2 4 5 6 8 7 8 10 13 15 16 15 16 15 10 8 7 8 9 10 10 11 12 13 13 13 12 12 12 13 12 12 13 13 13 14 14
6 4 3 2 1 2 3 4 5 6 7 8 8 9 12 15 15 13 13 8 9 9 9 9 10 10 11 11 12 12 13 13 14 13 13 13 12 12 13 13 13 17 16
5 5 2 1 1 2 4 4 5 6 7 8 8 8 10 11 10 10 9 9 8 9 9 10 11 11 12 12 12 12 13 13 14 13 13 13 12 12 13 15 14 13 13
3 3 2 2 2 3 4 5 6 6 7 8 8 9 14 11 10 11 10 9 9 10 10 11 11 12 12 11 12 13 14 13 13 13 13 13 13 13 13 13 13 13 12
3 2 2 2 3 4 5 5 6 6 8 9 8 10 14 10 9 9 9 10 10 10 10 11 11 11 11 12 12 13 13 14 14 13 13 14 14 14 14 13 12 11 11
2 1 1 2 3 5 5 5 6 6 7 8 9 9 9 9 9 9 10 10 10 10 10 10 11 12 12 11 12 12 13 14 14 15 15 16 15 13 12 11 12 11 11
2 2 2 3 4 5 5 6 6 7 7 8 9 9 9 10 10 11 10 10 11 11 10 10 12 15 19 15 13 14 14 15 16 16 19 16 13 11 11 11 10 11 10
1 2 3 4 5 5 5 6 6 7 7 8 8 9 9 10 10 10 10 10 12 12 14 13 12 13 17 20 19 17 22 27 26 17 12 10 11 11 11 10 9 10 10
2 3 4 4 5 5 5 6 7 7 8 8 8 9 9 9 10 10 10 10 11 12 13 12 14 17 21 19 20 23 27 28 24 19 10 8 9 9 10 8 9 9 10
Wind_Direction
145 137 136 138 138 139 136 133 132 134 139 143 148 153 158 167 183 222 259 282 296 302 301 301 300 299 294 292 290 286 285 285 288 294 298 302 300 297 298 298 297 295 293
138 134 135 135 134 132 129 129 131 133 136 140 146 152 157 170 211 264 288 295 298 298 299 299 298 299 297 296 294 292 291 289 290 296 299 300 299 301 300 300 298 295 293
135 133 133 133 131 128 127 128 128 130 133 139 147 151 153 171 258 290 296 296 293 291 293 297 301 301 300 300 298 295 293 293 291 292 296 298 299 301 303 300 298 297 296
134 131 130 130 128 126 126 125 127 130 135 141 141 138 140 244 294 299 299 296 293 289 286 289 294 296 299 301 299 297 296 296 295 292 293 297 301 303 302 303 304 303 300
128 124 123 123 122 122 122 123 124 128 133 136 136 134 125 310 324 320 310 301 295 291 287 288 291 294 296 296 297 298 300 297 294 293 296 301 301 303 304 306 303 303 300
122 120 121 121 120 121 123 124 125 129 133 134 130 110 331 336 333 320 317 305 297 293 295 297 298 294 295 298 298 298 295 292 294 296 298 298 299 302 305 304 303 302 302
117 119 121 121 121 123 125 126 129 132 136 138 122 345 328 343 332 325 318 307 299 297 297 298 298 298 303 300 299 297 294 291 289 292 294 294 297 301 302 299 299 298 296
118 119 121 123 123 125 125 125 127 131 136 128 34 341 328 334 332 323 320 308 300 295 295 297 300 303 304 304 303 301 299 295 291 292 290 290 291 293 294 296 297 294 291
120 122 124 126 126 126 124 124 127 133 128 99 337 334 326 328 333 327 327 313 303 302 302 301 302 301 304 307 308 305 302 300 300 296 290 288 289 293 294 294 292 292 295
120 121 122 123 123 122 121 122 123 123 111 349 323 327 324 327 332 332 328 315 311 310 306 304 303 304 308 311 312 309 306 307 306 302 298 296 295 293 292 285 286 289 293
116 114 111 111 112 114 117 119 123 119 50 327 321 322 320 326 329 329 327 321 316 312 308 308 306 310 311 313 313 306 304 306 304 302 302 301 299 297 297 295 290 284 285
111 109 107 107 107 115 121 121 113 65 335 332 329 329 330 327 323 325 324 320 316 311 308 307 309 311 314 313 310 305 306 308 302 303 301 300 302 302 300 297 293 286 276
111 110 110 111 113 117 115 111 91 21 349 337 331 326 327 327 325 324 322 319 317 312 305 307 308 311 314 310 305 307 309 305 305 303 301 301 300 298 297 297 295 292 287
116 118 121 120 116 110 100 79 41 6 345 332 326 322 320 319 321 325 323 318 316 315 312 309 308 308 306 303 306 309 309 306 306 302 300 300 300 300 299 301 302 305 302
121 121 119 114 113 105 89 59 9 358 335 324 320 316 314 313 317 321 319 316 318 315 315 308 307 312 315 316 315 316 316 314 311 306 302 302 302 303 303 304 303 302 298
122 121 116 113 104 85 52 15 318 313 318 313 312 312 309 307 313 318 318 318 319 319 316 307 311 315 316 317 317 316 316 313 310 306 302 300 301 302 303 304 302 300 299
119 117 110 101 84 52 5 337 325 303 288 299 308 315 315 316 318 319 321 322 320 319 311 311 313 314 314 312 311 310 309 309 307 303 300 300 300 300 300 301 302 301 301
107 99 97 91 70 16 337 326 321 320 319 318 317 316 321 323 322 324 328 326 320 322 316 312 313 312 311 309 307 307 306 307 306 304 301 299 298 298 298 299 299 299 302
102 102 99 91 45 340 327 319 313 309 308 311 314 319 328 325 322 325 332 325 319 317 316 313 311 308 306 304 303 302 302 302 302 302 299 298 297 297 296 296 297 298 301
101 98 89 56 4 340 327 316 310 309 309 311 315 322 327 324 323 325 328 322 316 313 312 310 308 305 304 301 300 301 302 301 302 300 299 298 297 296 294 295 296 298 301
106 96 68 22 356 335 320 313 311 309 310 313 314 319 324 322 318 317 318 317 314 310 308 307 304 303 300 298 298 300 301 299 298 298 297 297 298 298 296 293 294 296 302
87 67 29 357 337 325 317 314 309 307 311 312 315 319 324 322 315 314 315 314 310 305 304 302 299 296 295 295 297 299 298 296 296 297 297 297 297 295 293 294 298 308 316
74 49 2 339 328 319 314 310 310 311 313 315 318 320 322 320 318 316 313 311 308 305 303 299 296 295 295 296 296 293 290 290 291 292 293 292 292 294 300 308 315 321 323
57 9 340 331 323 317 315 315 315 315 317 319 320 319 318 317 315 313 311 306 304 303 301 299 294 293 296 300 299 295 290 288 289 286 287 292 304 312 315 320 325 329 327
19 346 332 324 317 313 313 314 315 317 318 318 316 315 314 313 311 308 306 304 304 302 302 301 296 297 301 304 303 300 297 300 303 306 308 315 317 319 325 330 334 333 335
346 329 320 315 310 309 311 312 314 316 314 312 310 308 308 307 305 305 305 304 306 306 304 302 300 304 306 306 304 306 308 312 320 332 338 327 327 335 342 343 341 342 344
Height
1427 1434 1441 1448 1455 1461 1466 1471 1475 1479 1482 1484 1485 1486 1485 1484 1482 1481 1479 1477 1475 1473 1470 1466 1463 1459 1455 1452 1448 1444 1440 1435 1427 1420 1419 1414 1410 1406 1401 1397 1391 1385 1379
1426 1433 1440 1447 1453 1459 1465 1470 1474 1477 1479 1481 1482 1482 1481 1480 1479 1477 1475 1473 1470 1468 1464 1461 1457 1453 1449 1445 1441 1437 1434 1430 1424 1415 1410 1407 1403 1399 1394 1389 1384 1378 1371
1426 1433 1439 1446 1452 1458 1464 1469 1472 1475 1477 1478 1479 1479 1478 1476 1474 1472 1470 1468 1465 1462 1459 1455 1452 1447 1443 1440 1436 1432 1429 1425 1420 1413 1405 1401 1396 1392 1387 1381 1376 1369 1363
1427 1433 1439 1446 1452 1458 1463 1467 1470 1474 1476 1476 1476 1475 1474 1472 1470 1468 1465 1463 1460 1457 1453 1450 1446 1442 1438 1435 1431 1428 1424 1420 1415 1409 1401 1395 1390 1386 1381 1374 1367 1362 1355
1427 1433 1439 1445 1452 1457 1461 1465 1469 1472 1474 1474 1473 1472 1471 1469 1466 1463 1460 1458 1455 1452 1448 1444 1440 1436 1432 1429 1426 1423 1419 1414 1409 1403 1397 1390 1385 1380 1375 1369 1361 1354 1347
1428 1434 1440 1446 1451 1456 1460 1464 1467 1470 1471 1471 1470 1469 1467 1465 1462 1459 1456 1453 1450 1446 1443 1439 1435 1431 1427 1424 1421 1417 1414 1409 1404 1398 1392 1386 1380 1375 1369 1363 1356 1348 1338
1430 1436 1442 1447 1452 1456 1460 1463 1466 1468 1469 1469 1467 1466 1463 1460 1457 1454 1451 1447 1444 1441 1437 1433 1430 1426 1422 1418 1414 1411 1407 1403 1399 1394 1387 1380 1374 1369 1363 1356 1350 1343 1335
1433 1438 1443 1448 1452 1456 1459 1462 1465 1466 1466 1466 1464 1462 1459 1456 1453 1449 1445 1442 1438 1435 1432 1428 1425 1421 1417 1414 1409 1404 1400 1395 1391 1386 1380 1374 1368 1363 1358 1352 1345 1336 1327
1435 1440 1445 1449 1453 1456 1459 1461 1463 1464 1463 1462 1460 1458 1455 1452 1448 1444 1440 1436 1433 1430 1427 1423 1420 1416 1412 1408 1403 1397 1391 1387 1383 1378 1372 1367 1361 1356 1351 1345 1338 1331 1321
1438 1442 1447 1451 1454 1456 1459 1460 1461 1461 1461 1459 1456 1453 1450 1447 1444 1440 1435 1432 1429 1426 1422 1418 1414 1410 1406 1402 1397 1391 1384 1379 1374 1369 1364 1359 1354 1348 1344 1340 1333 1326 1317
1440 1444 1448 1451 1454 1456 1458 1459 1459 1459 1458 1456 1453 1450 1446 1443 1439 1435 1432 1429 1425 1421 1417 1413 1409 1405 1400 1395 1390 1385 1379 1374 1368 1363 1357 1351 1347 1342 1338 1333 1327 1320 1312
1442 1446 1449 1452 1454 1456 1457 1457 1457 1456 1454 1452 1449 1446 1443 1439 1435 1431 1428 1425 1421 1417 1413 1408 1404 1399 1394 1388 1383 1378 1373 1368 1363 1357 1351 1346 1341 1336 1331 1325 1319 1313 1306
1444 1447 1450 1452 1454 1455 1455 1455 1454 1453 1451 1448 1446 1442 1439 1435 1432 1428 1424 1420 1417 1413 1408 1403 1398 1393 1387 1382 1378 1373 1368 1363 1358 1352 1346 1341 1335 1330 1324 1317 1311 1304 1298
1446 1448 1450 1452 1453 1453 1453 1452 1451 1450 1447 1445 1442 1439 1435 1432 1428 1424 1420 1416 1412 1408 1403 1397 1393 1388 1382 1378 1373 1369 1364 1359 1354 1348 1341 1336 1330 1324 1318 1312 1304 1297 1290
1447 1448 1450 1451 1451 1451 1451 1450 1448 1446 1444 1442 1439 1435 1432 1428 1425 1421 1417 1412 1408 1403 1398 1393 1388 1384 1379 1374 1370 1365 1360 1355 1349 1344 1337 1331 1325 1319 1313 1307 1300 1293 1286
1447 1448 1449 1450 1450 1449 1449 1447 1445 1444 1441 1438 1435 1431 1427 1424 1420 1416 1412 1408 1403 1398 1393 1389 1384 1380 1375 1371 1366 1361 1356 1351 1345 1340 1334 1327 1321 1314 1308 1302 1296 1290 1283
1447 1447 1448 1448 1448 1447 1446 1445 1443 1441 1438 1435 1431 1427 1423 1419 1415 1411 1407 1403 1398 1394 1390 1385 1381 1376 1372 1367 1363 1357 1352 1347 1341 1335 1330 1323 1317 1311 1305 1298 1292 1286 1279
1446 1447 1447 1447 1446 1445 1444 1442 1440 1437 1434 1430 1427 1423 1419 1415 1411 1406 1402 1398 1394 1390 1386 1382 1378 1373 1369 1365 1360 1354 1348 1343 1338 1332 1326 1320 1314 1307 1301 1295 1289 1283 1276
1446 1446 1446 1445 1445 1443 1442 1439 1436 1433 1429 1425 1422 1418 1415 1410 1407 1403 1398 1394 1390 1386 1382 1379 1375 1371 1366 1361 1356 1351 1345 1340 1334 1328 1322 1316 1310 1304 1298 1292 1286 1280 1274
1445 1445 1445 1444 1443 1441 1438 1435 1432 1429 1425 1422 1418 1414 1410 1406 1402 1398 1395 1391 1387 1383 1379 1375 1372 1368 1363 1358 1353 1347 1342 1336 1331 1325 1319 1313 1307 1301 1295 1289 1283 1277 1271
1445 1444 1444 1442 1440 1437 1434 1432 1429 1426 1422 1418 1415 1411 1406 1402 1398 1395 1391 1387 1383 1380 1376 1372 1369 1365 1360 1355 1349 1344 1339 1333 1328 1322 1316 1310 1304 1298 1293 1287 1281 1275 1270
1444 1443 1441 1439 1437 1434 1431 1429 1426 1422 1419 1415 1411 1407 1403 1399 1395 1391 1388 1384 1380 1377 1373 1369 1365 1362 1357 1352 1346 1340 1335 1330 1324 1319 1313 1307 1301 1295 1290 1285 1279 1274 1269
1442 1440 1438 1436 1434 1431 1428 1425 1422 1419 1415 1411 1407 1403 1400 1396 1392 1388 1384 1381 1377 1374 1370 1367 1363 1359 1354 1349 1344 1338 1332 1327 1322 1316 1310 1303 1298 1294 1289 1284 1279 1274 1268
1440 1438 1435 1433 1431 1428 1425 1422 1419 1415 1412 1408 1404 1400 1397 1393 1389 1386 1382 1378 1375 1371 1368 1364 1360 1356 1351 1346 1341 1336 1331 1325 1319 1313 1308 1304 1299 1293 1288 1283 1278 1274 1269
1437 1435 1432 1430 1427 1425 1422 1419 1415 1412 1409 1405 1401 1398 1394 1390 1387 1383 1379 1376 1372 1369 1366 1362 1358 1353 1348 1343 1338 1333 1328 1323 1318 1313 1308 1303 1297 1292 1288 1283 1279 1274 1270
1434 1432 1429 1427 1424 1421 1418 1415 1412 1409 1405 1402 1398 1395 1391 1388 1384 1381 1377 1374 1370 1367 1364 1360 1356 1351 1346 1341 1336 1331 1326 1322 1317 1311 1306 1301 1296 1292 1288 1284 1280 1276 1272